This is the latest recevied weather packets stored in our database for station/object OK1LPD-6. If no packets are shown the sender has not sent any weather packets the latest 10 day(s).
| Time | Temp. | Humidity | Pressure | Rain* | Wind** | Luminosity | Snow |
|---|---|---|---|---|---|---|---|
| 1777718125 | 23.33° C | 23% | 1022.6 hPa | 0 mm | - | - | - |
| 1777717524 | 23.33° C | 23% | 1022.9 hPa | 0 mm | - | - | - |
| 1777716943 | 23.33° C | 22% | 1022.9 hPa | 0 mm | - | - | - |
| 1777716324 | 22.78° C | 23% | 1022.9 hPa | 0 mm | - | - | - |
| 1777715724 | 22.78° C | 22% | 1023.2 hPa | 0 mm | - | - | - |
| 1777715141 | 23.33° C | 22% | 1023.4 hPa | 0 mm | - | - | - |
| 1777714524 | 23.89° C | 25% | 1023.4 hPa | 0 mm | - | - | - |
| 1777713924 | 23.33° C | 25% | 1023.6 hPa | 0 mm | - | - | - |
| 1777713345 | 22.78° C | 26% | 1023.7 hPa | 0 mm | - | - | - |
| 1777712724 | 21.67° C | 33% | 1023.8 hPa | 0 mm | - | - | - |
| 1777712125 | 21.67° C | 33% | 1023.9 hPa | 0 mm | - | - | - |
| 1777711543 | 21.67° C | 37% | 1024 hPa | 0 mm | - | - | - |
| 1777710925 | 21.11° C | 40% | 1024 hPa | 0 mm | - | - | - |
| 1777710325 | 20.56° C | 41% | 1024.1 hPa | 0 mm | - | - | - |
| 1777709745 | 19.44° C | 41% | 1024.3 hPa | 0 mm | - | - | - |
| 1777709125 | 18.33° C | 43% | 1024.3 hPa | 0 mm | - | - | - |
| 1777708525 | 17.78° C | 44% | 1024.6 hPa | 0 mm | - | - | - |
| 1777707943 | 17.78° C | 45% | 1024.7 hPa | 0 mm | - | - | - |
| 1777707326 | 16.67° C | 50% | 1024.7 hPa | 0 mm | - | - | - |
| 1777706725 | 16.11° C | 51% | 1024.9 hPa | 0 mm | - | - | - |
| 1777706146 | 15.56° C | 52% | 1024.9 hPa | 0 mm | - | - | - |
| 1777705525 | 15.56° C | 50% | 1024.8 hPa | 0 mm | - | - | - |
| 1777704926 | 16.11° C | 48% | 1024.9 hPa | 0 mm | - | - | - |
| 1777704344 | 17.22° C | 49% | 1025 hPa | 0 mm | - | - | - |
| 1777703726 | 16.67° C | 51% | 1025.2 hPa | 0 mm | - | - | - |
* Rain latest hour (hover to see other rain measurements)
** Current wind speed in m/s (hover to see current wind gust speed)